Time,TemperatureF,DewpointF,PressureIn,WindDirection,WindDirectionDegrees,WindSpeedMPH,WindSpeedGustMPH,Humidity,HourlyPrecipIn,Conditions,Clouds,dailyrainin,SolarRadiationWatts/m^2,SoftwareType,DateUTC
2013-02-24 00:02:00,33.8,32.3,30.35,NW,316,0.0,0.0,94,0.00,,,0.00,0,LWC V2.10 B1813,2013-02-24 08:02:00,
2013-02-24 00:07:00,34.0,32.5,30.35,NW,315,0.0,0.0,94,0.00,,,0.00,0,LWC V2.10 B1813,2013-02-24 08:07:00,
2013-02-24 00:12:00,34.1,32.8,30.35,NW,316,0.0,0.0,95,0.00,,,0.00,0,LWC V2.10 B1813,2013-02-24 08:12:00,
2013-02-24 00:17:00,34.1,32.8,30.34,NW,316,0.0,0.0,95,0.00,,,0.00,0,LWC V2.10 B1813,2013-02-24 08:17:00,
2013-02-24 00:22:00,34.1,32.8,30.34,NW,316,0.0,0.0,95,0.00,,,0.00,0,LWC V2.10 B1813,2013-02-24 08:22:00,
2013-02-24 00:27:00,34.3,33.0,30.34,East,101,0.0,1.0,95,0.00,,,0.00,0,LWC V2.10 B1813,2013-02-24 08:27:00,
2013-02-24 00:32:00,34.4,33.1,30.34,ESE,103,0.0,0.0,95,0.00,,,0.00,0,LWC V2.10 B1813,2013-02-24 08:32:00,
2013-02-24 00:37:00,34.6,33.3,30.34,ESE,103,0.0,0.0,95,0.00,,,0.00,0,LWC V2.10 B1813,2013-02-24 08:37:00,
2013-02-24 00:42:00,34.7,33.4,30.34,ESE,103,0.0,0.0,95,0.00,,,0.00,0,LWC V2.10 B1813,2013-02-24 08:42:00,
2013-02-24 00:46:00,34.7,33.4,30.34,ESE,103,0.0,0.0,95,0.00,,,0.00,0,LWC V2.10 B1813,2013-02-24 08:46:00,
2013-02-24 00:51:00,34.7,33.4,30.34,ESE,103,0.0,1.0,95,0.00,,,0.00,0,LWC V2.10 B1813,2013-02-24 08:51:00,
2013-02-24 00:56:00,34.9,33.6,30.34,SE,126,0.0,2.0,95,0.00,,,0.00,0,LWC V2.10 B1813,2013-02-24 08:56:00,
2013-02-24 01:01:00,35.0,34.0,30.34,SE,127,0.0,1.0,96,0.00,,,0.00,0,LWC V2.10 B1813,2013-02-24 09:01:00,
2013-02-24 01:06:00,35.2,34.2,30.34,SE,127,0.0,0.0,96,0.00,,,0.00,0,LWC V2.10 B1813,2013-02-24 09:06:00,
2013-02-24 01:11:00,35.2,34.2,30.34,SE,127,0.0,0.0,96,0.00,,,0.00,0,LWC V2.10 B1813,2013-02-24 09:11:00,
2013-02-24 01:16:00,35.2,34.2,30.34,SE,127,0.0,2.0,96,0.00,,,0.00,0,LWC V2.10 B1813,2013-02-24 09:16:00,
2013-02-24 01:21:00,35.3,34.3,30.34,ESE,123,0.0,3.0,96,0.00,,,0.00,0,LWC V2.10 B1813,2013-02-24 09:21:00,
2013-02-24 01:26:00,35.5,34.5,30.34,ESE,121,2.0,3.0,96,0.00,,,0.00,0,LWC V2.10 B1813,2013-02-24 09:26:00,
2013-02-24 01:31:00,35.6,34.6,30.34,SE,128,4.0,4.0,96,0.00,,,0.00,0,LWC V2.10 B1813,2013-02-24 09:31:00,
2013-02-24 01:36:00,35.6,34.6,30.34,SE,128,2.0,3.0,96,0.00,,,0.00,0,LWC V2.10 B1813,2013-02-24 09:36:00,
2013-02-24 01:41:00,35.6,34.6,30.34,SE,125,1.0,2.0,96,0.00,,,0.00,0,LWC V2.10 B1813,2013-02-24 09:41:00,
2013-02-24 01:46:00,35.8,34.8,30.33,SE,131,0.0,2.0,96,0.00,,,0.00,0,LWC V2.10 B1813,2013-02-24 09:46:00,
2013-02-24 01:51:00,35.8,34.8,30.33,SE,137,0.0,1.0,96,0.00,,,0.00,0,LWC V2.10 B1813,2013-02-24 09:51:00,
2013-02-24 01:56:00,35.8,34.8,30.33,SE,137,0.0,1.0,96,0.00,,,0.00,0,LWC V2.10 B1813,2013-02-24 09:56:00,
2013-02-24 02:01:00,35.8,34.8,30.34,SE,137,0.0,0.0,96,0.00,,,0.00,0,LWC V2.10 B1813,2013-02-24 10:01:00,
2013-02-24 02:06:00,35.6,34.6,30.34,SE,137,0.0,0.0,96,0.00,,,0.00,0,LWC V2.10 B1813,2013-02-24 10:06:00,
2013-02-24 02:11:00,35.6,34.6,30.34,SE,137,0.0,0.0,96,0.00,,,0.00,0,LWC V2.10 B1813,2013-02-24 10:11:00,
2013-02-24 02:16:00,35.6,34.6,30.35,SE,137,0.0,0.0,96,0.00,,,0.00,0,LWC V2.10 B1813,2013-02-24 10:16:00,
2013-02-24 02:21:00,35.6,34.6,30.35,SE,137,0.0,0.0,96,0.00,,,0.00,0,LWC V2.10 B1813,2013-02-24 10:21:00,
2013-02-24 02:26:00,35.6,34.6,30.35,SE,137,0.0,0.0,96,0.00,,,0.00,0,LWC V2.10 B1813,2013-02-24 10:26:00,
2013-02-24 02:31:00,35.6,34.6,30.35,SE,137,0.0,0.0,96,0.00,,,0.00,0,LWC V2.10 B1813,2013-02-24 10:31:00,
2013-02-24 02:36:00,35.6,34.6,30.35,SE,137,0.0,0.0,96,0.00,,,0.00,0,LWC V2.10 B1813,2013-02-24 10:36:00,
2013-02-24 02:41:00,35.5,34.5,30.35,SE,137,0.0,0.0,96,0.00,,,0.00,0,LWC V2.10 B1813,2013-02-24 10:41:00,
2013-02-24 02:46:00,35.5,34.5,30.34,SE,137,0.0,0.0,96,0.00,,,0.00,0,LWC V2.10 B1813,2013-02-24 10:46:00,
2013-02-24 02:51:00,35.5,34.5,30.34,SE,137,0.0,0.0,96,0.00,,,0.00,0,LWC V2.10 B1813,2013-02-24 10:51:00,
2013-02-24 02:56:00,35.5,34.5,30.34,SE,137,0.0,0.0,96,0.00,,,0.00,0,LWC V2.10 B1813,2013-02-24 10:56:00,
2013-02-24 03:01:00,35.5,34.5,30.34,SE,137,0.0,1.0,96,0.00,,,0.00,0,LWC V2.10 B1813,2013-02-24 11:01:00,
2013-02-24 03:06:00,35.5,34.5,30.34,SE,137,0.0,0.0,96,0.00,,,0.00,0,LWC V2.10 B1813,2013-02-24 11:06:00,
2013-02-24 03:11:00,35.5,34.5,30.34,SE,137,0.0,0.0,96,0.00,,,0.00,0,LWC V2.10 B1813,2013-02-24 11:11:00,
2013-02-24 03:16:00,35.5,34.5,30.34,SE,137,0.0,0.0,96,0.00,,,0.00,0,LWC V2.10 B1813,2013-02-24 11:16:00,
2013-02-24 03:21:00,35.5,34.5,30.34,SE,137,0.0,0.0,96,0.00,,,0.00,0,LWC V2.10 B1813,2013-02-24 11:21:00,
2013-02-24 03:26:00,35.5,34.5,30.34,SE,137,1.0,1.0,96,0.00,,,0.00,0,LWC V2.10 B1813,2013-02-24 11:26:00,
2013-02-24 03:31:00,35.6,34.6,30.33,SE,137,0.0,1.0,96,0.00,,,0.00,0,LWC V2.10 B1813,2013-02-24 11:31:00,
2013-02-24 03:36:00,35.6,34.6,30.33,SE,137,0.0,0.0,96,0.00,,,0.00,0,LWC V2.10 B1813,2013-02-24 11:36:00,
2013-02-24 03:41:00,35.8,34.8,30.33,SE,137,0.0,0.0,96,0.00,,,0.00,0,LWC V2.10 B1813,2013-02-24 11:41:00,
2013-02-24 03:46:00,35.8,34.8,30.33,SE,137,0.0,0.0,96,0.00,,,0.00,0,LWC V2.10 B1813,2013-02-24 11:46:00,
2013-02-24 03:51:00,35.8,34.8,30.33,SE,137,0.0,0.0,96,0.00,,,0.00,0,LWC V2.10 B1813,2013-02-24 11:51:00,
2013-02-24 03:56:00,35.8,34.8,30.33,SE,137,0.0,0.0,96,0.00,,,0.00,0,LWC V2.10 B1813,2013-02-24 11:56:00,
2013-02-24 04:01:00,35.9,34.9,30.33,SE,137,0.0,0.0,96,0.00,,,0.00,0,LWC V2.10 B1813,2013-02-24 12:01:00,
2013-02-24 04:06:00,35.9,34.9,30.33,SE,137,0.0,0.0,96,0.00,,,0.00,0,LWC V2.10 B1813,2013-02-24 12:06:00,
2013-02-24 04:11:00,35.9,34.9,30.33,SE,137,0.0,0.0,96,0.00,,,0.00,0,LWC V2.10 B1813,2013-02-24 12:11:00,
2013-02-24 04:16:00,35.9,34.9,30.33,SE,137,0.0,0.0,96,0.00,,,0.00,0,LWC V2.10 B1813,2013-02-24 12:16:00,
2013-02-24 04:21:00,36.0,35.0,30.33,SE,137,0.0,0.0,96,0.00,,,0.00,0,LWC V2.10 B1813,2013-02-24 12:21:00,
2013-02-24 04:26:00,36.0,35.0,30.33,SE,137,0.0,1.0,96,0.00,,,0.00,0,LWC V2.10 B1813,2013-02-24 12:26:00,
2013-02-24 04:31:00,36.2,35.2,30.33,SE,137,0.0,1.0,96,0.00,,,0.00,0,LWC V2.10 B1813,2013-02-24 12:31:00,
2013-02-24 04:36:00,36.2,35.4,30.33,SE,137,0.0,2.0,97,0.00,,,0.00,0,LWC V2.10 B1813,2013-02-24 12:36:00,
2013-02-24 04:41:00,36.3,35.5,30.33,ESE,119,0.0,2.0,97,0.00,,,0.00,0,LWC V2.10 B1813,2013-02-24 12:41:00,
2013-02-24 04:46:00,36.3,35.5,30.33,ESE,118,0.0,0.0,97,0.00,,,0.00,0,LWC V2.10 B1813,2013-02-24 12:46:00,
2013-02-24 04:51:00,36.5,35.7,30.33,ESE,118,0.0,0.0,97,0.00,,,0.00,0,LWC V2.10 B1813,2013-02-24 12:51:00,
2013-02-24 04:56:00,36.5,35.7,30.33,ESE,118,0.0,0.0,97,0.00,,,0.00,0,LWC V2.10 B1813,2013-02-24 12:56:00,
2013-02-24 05:01:00,36.5,35.7,30.32,ESE,118,0.0,0.0,97,0.00,,,0.00,0,LWC V2.10 B1813,2013-02-24 13:01:00,
2013-02-24 05:06:00,36.5,35.7,30.32,ESE,118,0.0,0.0,97,0.00,,,0.00,0,LWC V2.10 B1813,2013-02-24 13:06:00,
2013-02-24 05:11:00,36.6,35.8,30.32,ESE,118,0.0,0.0,97,0.00,,,0.00,0,LWC V2.10 B1813,2013-02-24 13:11:00,
2013-02-24 05:16:00,36.6,35.8,30.32,ESE,118,0.0,0.0,97,0.00,,,0.00,0,LWC V2.10 B1813,2013-02-24 13:16:00,
2013-02-24 05:21:00,36.6,35.8,30.32,ESE,118,0.0,0.0,97,0.00,,,0.00,0,LWC V2.10 B1813,2013-02-24 13:21:00,
2013-02-24 05:26:00,36.6,35.8,30.32,ESE,118,0.0,0.0,97,0.00,,,0.00,0,LWC V2.10 B1813,2013-02-24 13:26:00,
2013-02-24 05:31:00,36.6,35.8,30.32,ESE,118,0.0,0.0,97,0.00,,,0.00,0,LWC V2.10 B1813,2013-02-24 13:31:00,
2013-02-24 05:36:00,36.6,35.8,30.32,ESE,118,0.0,0.0,97,0.00,,,0.00,0,LWC V2.10 B1813,2013-02-24 13:36:00,
2013-02-24 05:41:00,36.6,35.8,30.32,ESE,118,0.0,0.0,97,0.00,,,0.00,0,LWC V2.10 B1813,2013-02-24 13:41:00,
2013-02-24 05:46:00,36.8,36.0,30.32,ESE,118,0.0,0.0,97,0.00,,,0.00,0,LWC V2.10 B1813,2013-02-24 13:46:00,
2013-02-24 05:51:00,36.8,36.0,30.32,ESE,118,0.0,0.0,97,0.00,,,0.00,0,LWC V2.10 B1813,2013-02-24 13:51:00,
2013-02-24 05:56:00,36.8,36.0,30.32,ESE,113,0.0,4.0,97,0.00,,,0.00,0,LWC V2.10 B1813,2013-02-24 13:56:00,
2013-02-24 06:01:00,36.8,36.0,30.32,ESE,116,0.0,1.0,97,0.00,,,0.00,0,LWC V2.10 B1813,2013-02-24 14:01:00,
2013-02-24 06:06:00,36.9,36.1,30.32,ESE,116,0.0,0.0,97,0.00,,,0.00,0,LWC V2.10 B1813,2013-02-24 14:06:00,
2013-02-24 06:11:00,36.9,36.1,30.32,ESE,116,0.0,1.0,97,0.00,,,0.00,0,LWC V2.10 B1813,2013-02-24 14:11:00,
2013-02-24 06:16:00,36.9,36.1,30.32,ESE,116,0.0,0.0,97,0.00,,,0.00,0,LWC V2.10 B1813,2013-02-24 14:16:00,
2013-02-24 06:21:00,36.9,36.1,30.32,ESE,116,0.0,0.0,97,0.00,,,0.00,0,LWC V2.10 B1813,2013-02-24 14:21:00,
2013-02-24 06:26:00,37.0,36.0,30.32,ESE,116,0.0,1.0,96,0.00,,,0.00,0,LWC V2.10 B1813,2013-02-24 14:26:00,
2013-02-24 06:31:00,37.0,36.0,30.31,ESE,116,0.0,0.0,96,0.00,,,0.00,0,LWC V2.10 B1813,2013-02-24 14:31:00,
2013-02-24 06:36:00,37.0,36.0,30.31,ESE,116,0.0,0.0,96,0.00,,,0.00,0,LWC V2.10 B1813,2013-02-24 14:36:00,
2013-02-24 06:41:00,37.0,36.0,30.31,ESE,116,0.0,0.0,96,0.00,,,0.00,0,LWC V2.10 B1813,2013-02-24 14:41:00,
2013-02-24 06:46:00,37.0,36.0,30.30,ESE,123,2.0,2.0,96,0.00,,,0.00,0,LWC V2.10 B1813,2013-02-24 14:46:00,
2013-02-24 06:51:00,37.0,36.0,30.30,ESE,115,0.0,0.0,96,0.00,,,0.00,0,LWC V2.10 B1813,2013-02-24 14:51:00,
2013-02-24 06:56:00,37.0,36.0,30.30,ESE,115,0.0,1.0,96,0.00,,,0.00,0,LWC V2.10 B1813,2013-02-24 14:56:00,
2013-02-24 07:01:00,37.0,36.0,30.30,East,97,0.0,1.0,96,0.00,,,0.00,0,LWC V2.10 B1813,2013-02-24 15:01:00,
2013-02-24 07:06:00,37.0,36.0,30.30,East,97,0.0,0.0,96,0.00,,,0.00,0,LWC V2.10 B1813,2013-02-24 15:06:00,
2013-02-24 07:11:00,37.0,36.0,30.30,East,97,0.0,1.0,96,0.00,,,0.00,0,LWC V2.10 B1813,2013-02-24 15:11:00,
2013-02-24 07:16:00,37.2,36.2,30.31,East,97,0.0,0.0,96,0.00,,,0.00,0,LWC V2.10 B1813,2013-02-24 15:16:00,
2013-02-24 07:21:00,37.2,36.2,30.31,SE,137,0.0,1.0,96,0.00,,,0.00,5,LWC V2.10 B1813,2013-02-24 15:21:00,
2013-02-24 07:26:00,37.2,36.2,30.31,SE,137,0.0,0.0,96,0.00,,,0.00,7,LWC V2.10 B1813,2013-02-24 15:26:00,
2013-02-24 07:31:00,37.2,36.2,30.31,SE,137,0.0,0.0,96,0.00,,,0.00,9,LWC V2.10 B1813,2013-02-24 15:31:00,
2013-02-24 07:36:00,37.2,36.2,30.31,SSE,155,0.0,1.0,96,0.00,,,0.00,9,LWC V2.10 B1813,2013-02-24 15:36:00,
2013-02-24 07:41:00,37.2,36.2,30.31,SSE,155,1.0,1.0,96,0.00,,,0.00,9,LWC V2.10 B1813,2013-02-24 15:41:00,
2013-02-24 07:46:00,37.3,36.0,30.31,SE,130,1.0,2.0,95,0.00,,,0.00,11,LWC V2.10 B1813,2013-02-24 15:46:00,
2013-02-24 07:51:00,37.3,36.0,30.31,ESE,113,0.0,2.0,95,0.00,,,0.00,12,LWC V2.10 B1813,2013-02-24 15:51:00,
2013-02-24 07:56:00,37.3,36.0,30.31,ESE,121,0.0,3.0,95,0.00,,,0.00,16,LWC V2.10 B1813,2013-02-24 15:56:00,
2013-02-24 08:01:00,37.5,36.2,30.31,ESE,110,0.0,2.0,95,0.00,,,0.00,19,LWC V2.10 B1813,2013-02-24 16:01:00,
2013-02-24 08:06:00,37.5,36.2,30.31,ESE,110,0.0,2.0,95,0.00,,,0.00,28,LWC V2.10 B1813,2013-02-24 16:06:00,
2013-02-24 08:11:00,37.6,36.0,30.31,ESE,103,0.0,2.0,94,0.00,,,0.00,30,LWC V2.10 B1813,2013-02-24 16:11:00,
2013-02-24 08:16:00,37.6,36.0,30.31,ESE,117,1.0,1.0,94,0.00,,,0.00,40,LWC V2.10 B1813,2013-02-24 16:16:00,
2013-02-24 08:21:00,37.8,36.2,30.31,SE,128,0.0,4.0,94,0.00,,,0.00,37,LWC V2.10 B1813,2013-02-24 16:21:00,
2013-02-24 08:26:00,37.8,36.0,30.31,East,101,1.0,2.0,93,0.00,,,0.00,53,LWC V2.10 B1813,2013-02-24 16:26:00,
2013-02-24 08:31:00,37.9,36.1,30.30,ESE,115,0.0,0.0,93,0.00,,,0.00,44,LWC V2.10 B1813,2013-02-24 16:31:00,
2013-02-24 08:36:00,38.0,36.2,30.30,ESE,119,3.0,3.0,93,0.00,,,0.00,49,LWC V2.10 B1813,2013-02-24 16:36:00,
2013-02-24 08:41:00,38.2,36.4,30.30,East,96,2.0,4.0,93,0.00,,,0.00,70,LWC V2.10 B1813,2013-02-24 16:41:00,
2013-02-24 08:46:00,38.3,36.2,30.30,ESE,123,0.0,3.0,92,0.00,,,0.00,91,LWC V2.10 B1813,2013-02-24 16:46:00,
2013-02-24 08:51:00,38.5,36.1,30.30,ESE,116,4.0,6.0,91,0.00,,,0.00,105,LWC V2.10 B1813,2013-02-24 16:51:00,
2013-02-24 08:56:00,38.8,36.1,30.30,ESE,121,2.0,5.0,90,0.00,,,0.00,90,LWC V2.10 B1813,2013-02-24 16:56:00,
2013-02-24 09:01:00,38.9,35.9,30.30,ESE,116,0.0,7.0,89,0.00,,,0.00,76,LWC V2.10 B1813,2013-02-24 17:01:00,
2013-02-24 09:06:00,39.2,36.2,30.30,ESE,120,4.0,4.0,89,0.00,,,0.00,90,LWC V2.10 B1813,2013-02-24 17:06:00,
2013-02-24 09:11:00,39.3,36.3,30.30,ESE,119,2.0,3.0,89,0.00,,,0.00,104,LWC V2.10 B1813,2013-02-24 17:11:00,
2013-02-24 09:16:00,39.5,36.2,30.30,SSE,167,2.0,3.0,88,0.00,,,0.00,81,LWC V2.10 B1813,2013-02-24 17:16:00,
2013-02-24 09:21:00,39.6,36.3,30.30,ESE,123,1.0,1.0,88,0.00,,,0.00,86,LWC V2.10 B1813,2013-02-24 17:21:00,
2013-02-24 09:26:00,39.6,36.1,30.30,East,89,3.0,4.0,87,0.00,,,0.00,84,LWC V2.10 B1813,2013-02-24 17:26:00,
2013-02-24 09:31:00,39.8,36.3,30.30,ESE,113,0.0,5.0,87,0.00,,,0.00,70,LWC V2.10 B1813,2013-02-24 17:31:00,
2013-02-24 09:36:00,39.8,36.3,30.30,ESE,117,3.0,8.0,87,0.00,,,0.00,116,LWC V2.10 B1813,2013-02-24 17:36:00,
2013-02-24 09:41:00,39.9,36.1,30.30,ESE,115,2.0,3.0,86,0.00,,,0.00,98,LWC V2.10 B1813,2013-02-24 17:41:00,
2013-02-24 09:46:00,40.1,36.3,30.30,ESE,117,0.0,4.0,86,0.00,,,0.00,97,LWC V2.10 B1813,2013-02-24 17:46:00,
2013-02-24 09:51:00,40.2,36.4,30.30,SE,128,1.0,3.0,86,0.00,,,0.00,104,LWC V2.10 B1813,2013-02-24 17:51:00,
2013-02-24 09:56:00,40.3,36.5,30.30,SSW,194,1.0,5.0,86,0.00,,,0.00,120,LWC V2.10 B1813,2013-02-24 17:56:00,
2013-02-24 10:01:00,40.3,36.5,30.30,SE,143,2.0,5.0,86,0.00,,,0.00,132,LWC V2.10 B1813,2013-02-24 18:01:00,
2013-02-24 10:06:00,40.5,36.4,30.30,SE,134,0.0,5.0,85,0.00,,,0.00,132,LWC V2.10 B1813,2013-02-24 18:06:00,
2013-02-24 10:11:00,40.6,36.2,30.30,East,96,0.0,1.0,84,0.00,,,0.00,149,LWC V2.10 B1813,2013-02-24 18:11:00,
2013-02-24 10:16:00,40.8,36.3,30.29,ESE,117,0.0,7.0,84,0.00,,,0.00,171,LWC V2.10 B1813,2013-02-24 18:16:00,
2013-02-24 10:21:00,41.1,36.6,30.29,East,90,1.0,4.0,84,0.00,,,0.00,206,LWC V2.10 B1813,2013-02-24 18:21:00,
2013-02-24 10:26:00,41.2,36.4,30.29,SE,144,0.0,4.0,83,0.00,,,0.00,223,LWC V2.10 B1813,2013-02-24 18:26:00,
2013-02-24 10:31:00,41.6,36.8,30.28,SE,128,2.0,3.0,83,0.00,,,0.00,211,LWC V2.10 B1813,2013-02-24 18:31:00,
2013-02-24 10:36:00,41.9,36.8,30.28,ESE,116,0.0,6.0,82,0.00,,,0.00,200,LWC V2.10 B1813,2013-02-24 18:36:00,
2013-02-24 10:41:00,42.1,36.7,30.28,NE,53,1.0,10.0,81,0.00,,,0.00,218,LWC V2.10 B1813,2013-02-24 18:41:00,
2013-02-24 10:46:00,42.2,36.5,30.28,ESE,105,7.0,10.0,80,0.00,,,0.00,200,LWC V2.10 B1813,2013-02-24 18:46:00,
2013-02-24 10:51:00,42.5,37.1,30.28,ESE,111,0.0,4.0,81,0.00,,,0.00,190,LWC V2.10 B1813,2013-02-24 18:51:00,
2013-02-24 10:56:00,42.6,37.2,30.28,SSE,163,3.0,5.0,81,0.00,,,0.00,188,LWC V2.10 B1813,2013-02-24 18:56:00,
2013-02-24 11:01:00,42.8,37.1,30.27,ESE,111,1.0,6.0,80,0.00,,,0.00,206,LWC V2.10 B1813,2013-02-24 19:01:00,
2013-02-24 11:06:00,42.8,36.4,30.27,ESE,103,1.0,4.0,78,0.00,,,0.00,193,LWC V2.10 B1813,2013-02-24 19:06:00,
2013-02-24 11:11:00,42.9,36.8,30.27,SE,128,0.0,5.0,79,0.00,,,0.00,172,LWC V2.10 B1813,2013-02-24 19:11:00,
2013-02-24 11:16:00,42.9,36.5,30.27,ENE,76,3.0,5.0,78,0.00,,,0.00,163,LWC V2.10 B1813,2013-02-24 19:16:00,
2013-02-24 11:21:00,43.1,37.4,30.27,ESE,103,1.0,1.0,80,0.00,,,0.00,137,LWC V2.10 B1813,2013-02-24 19:21:00,
2013-02-24 11:26:00,43.2,36.8,30.27,SSE,150,1.0,3.0,78,0.00,,,0.00,111,LWC V2.10 B1813,2013-02-24 19:26:00,
2013-02-24 11:31:00,43.2,36.8,30.27,ESE,117,4.0,4.0,78,0.00,,,0.00,116,LWC V2.10 B1813,2013-02-24 19:31:00,
2013-02-24 11:36:00,43.2,36.8,30.27,SE,128,3.0,5.0,78,0.00,,,0.00,127,LWC V2.10 B1813,2013-02-24 19:36:00,
2013-02-24 11:41:00,43.2,36.8,30.27,East,101,2.0,3.0,78,0.00,,,0.00,142,LWC V2.10 B1813,2013-02-24 19:41:00,
2013-02-24 11:46:00,43.3,36.9,30.26,ESE,110,0.0,4.0,78,0.00,,,0.00,116,LWC V2.10 B1813,2013-02-24 19:46:00,
2013-02-24 11:51:00,43.5,37.1,30.26,East,92,1.0,2.0,78,0.00,,,0.00,132,LWC V2.10 B1813,2013-02-24 19:51:00,
2013-02-24 11:56:00,43.5,37.1,30.26,SE,128,2.0,4.0,78,0.00,,,0.00,130,LWC V2.10 B1813,2013-02-24 19:56:00,
2013-02-24 12:01:00,43.6,37.2,30.25,South,174,3.0,4.0,78,0.00,,,0.00,207,LWC V2.10 B1813,2013-02-24 20:01:00,
2013-02-24 12:06:00,43.8,37.1,30.25,SE,135,1.0,3.0,77,0.00,,,0.00,267,LWC V2.10 B1813,2013-02-24 20:06:00,
2013-02-24 12:11:00,44.1,37.4,30.25,East,86,1.0,2.0,77,0.00,,,0.00,190,LWC V2.10 B1813,2013-02-24 20:11:00,
2013-02-24 12:16:00,44.3,37.6,30.25,SE,126,0.0,2.0,77,0.00,,,0.00,149,LWC V2.10 B1813,2013-02-24 20:16:00,
2013-02-24 12:21:00,44.5,37.4,30.25,ESE,121,0.0,3.0,76,0.00,,,0.00,176,LWC V2.10 B1813,2013-02-24 20:21:00,
2013-02-24 12:26:00,44.6,36.8,30.25,ESE,109,5.0,6.0,74,0.00,,,0.00,139,LWC V2.10 B1813,2013-02-24 20:26:00,
2013-02-24 12:31:00,44.6,36.8,30.24,ENE,78,5.0,5.0,74,0.00,,,0.00,178,LWC V2.10 B1813,2013-02-24 20:31:00,
2013-02-24 12:36:00,44.6,37.2,30.24,SE,128,1.0,5.0,75,0.00,,,0.00,211,LWC V2.10 B1813,2013-02-24 20:36:00,
2013-02-24 12:41:00,44.8,36.7,30.24,ESE,117,2.0,5.0,73,0.00,,,0.00,171,LWC V2.10 B1813,2013-02-24 20:41:00,
2013-02-24 12:46:00,44.8,36.7,30.24,East,101,3.0,9.0,73,0.00,,,0.00,151,LWC V2.10 B1813,2013-02-24 20:46:00,
2013-02-24 12:51:00,44.8,37.0,30.24,East,98,0.0,1.0,74,0.00,,,0.00,167,LWC V2.10 B1813,2013-02-24 20:51:00,
2013-02-24 12:57:00,44.9,36.8,30.24,NE,34,2.0,6.0,73,0.00,,,0.00,134,LWC V2.10 B1813,2013-02-24 20:57:00,
2013-02-24 13:02:00,44.8,36.3,30.23,SE,126,2.0,6.0,72,0.00,,,0.00,135,LWC V2.10 B1813,2013-02-24 21:02:00,
2013-02-24 13:07:00,44.8,36.7,30.23,ESE,115,3.0,4.0,73,0.00,,,0.00,146,LWC V2.10 B1813,2013-02-24 21:07:00,
2013-02-24 13:12:00,44.6,36.1,30.23,ESE,114,3.0,5.0,72,0.00,,,0.00,135,LWC V2.10 B1813,2013-02-24 21:12:00,
2013-02-24 13:17:00,44.6,36.8,30.22,SE,138,1.0,4.0,74,0.00,,,0.00,134,LWC V2.10 B1813,2013-02-24 21:17:00,
2013-02-24 13:22:00,44.6,36.5,30.22,ESE,107,0.0,9.0,73,0.00,,,0.00,118,LWC V2.10 B1813,2013-02-24 21:22:00,
2013-02-24 13:27:00,44.8,36.7,30.22,SE,124,4.0,6.0,73,0.00,,,0.00,128,LWC V2.10 B1813,2013-02-24 21:27:00,
2013-02-24 13:32:00,44.8,36.7,30.21,East,101,0.0,2.0,73,0.00,,,0.00,107,LWC V2.10 B1813,2013-02-24 21:32:00,
2013-02-24 13:37:00,44.6,36.5,30.21,SE,142,8.0,8.0,73,0.00,,,0.00,95,LWC V2.10 B1813,2013-02-24 21:37:00,
2013-02-24 13:42:00,44.6,36.5,30.21,NNE,32,2.0,3.0,73,0.00,,,0.00,100,LWC V2.10 B1813,2013-02-24 21:42:00,
2013-02-24 13:47:00,44.5,36.4,30.21,ESE,111,3.0,5.0,73,0.00,,,0.00,72,LWC V2.10 B1813,2013-02-24 21:47:00,
2013-02-24 13:52:00,44.5,37.1,30.21,East,101,1.0,3.0,75,0.00,,,0.00,72,LWC V2.10 B1813,2013-02-24 21:52:00,
2013-02-24 13:57:00,44.3,36.5,30.21,ESE,107,2.0,4.0,74,0.00,,,0.00,62,LWC V2.10 B1813,2013-02-24 21:57:00,
2013-02-24 14:02:00,44.2,37.1,30.21,ESE,117,1.0,5.0,76,0.00,,,0.00,53,LWC V2.10 B1813,2013-02-24 22:02:00,
2013-02-24 14:07:00,44.2,37.1,30.21,SE,127,0.0,1.0,76,0.00,,,0.00,67,LWC V2.10 B1813,2013-02-24 22:07:00,
2013-02-24 14:12:00,44.1,37.0,30.21,ESE,109,2.0,4.0,76,0.00,,,0.00,63,LWC V2.10 B1813,2013-02-24 22:12:00,
2013-02-24 14:17:00,44.1,37.4,30.20,ESE,120,2.0,3.0,77,0.00,,,0.00,69,LWC V2.10 B1813,2013-02-24 22:17:00,
2013-02-24 14:22:00,43.9,37.2,30.20,SSE,153,1.0,5.0,77,0.00,,,0.00,56,LWC V2.10 B1813,2013-02-24 22:22:00,
2013-02-24 14:27:00,43.8,37.4,30.20,ESE,107,2.0,3.0,78,0.00,,,0.00,47,LWC V2.10 B1813,2013-02-24 22:27:00,
2013-02-24 14:32:00,43.8,37.4,30.19,SE,126,0.0,5.0,78,0.00,,,0.00,51,LWC V2.10 B1813,2013-02-24 22:32:00,
2013-02-24 14:37:00,43.6,37.2,30.19,ESE,102,2.0,7.0,78,0.00,,,0.00,58,LWC V2.10 B1813,2013-02-24 22:37:00,
2013-02-24 14:42:00,43.5,37.1,30.19,East,93,4.0,4.0,78,0.00,,,0.00,54,LWC V2.10 B1813,2013-02-24 22:42:00,
2013-02-24 14:47:00,43.5,37.1,30.19,ESE,121,1.0,1.0,78,0.00,,,0.00,51,LWC V2.10 B1813,2013-02-24 22:47:00,
2013-02-24 14:52:00,43.5,37.4,30.19,ESE,113,0.0,0.0,79,0.00,,,0.00,67,LWC V2.10 B1813,2013-02-24 22:52:00,
2013-02-24 14:57:00,43.3,37.2,30.19,ESE,103,2.0,5.0,79,0.00,,,0.00,62,LWC V2.10 B1813,2013-02-24 22:57:00,
2013-02-24 15:02:00,43.3,37.2,30.18,South,171,3.0,3.0,79,0.00,,,0.00,76,LWC V2.10 B1813,2013-02-24 23:02:00,
2013-02-24 15:07:00,43.3,37.6,30.18,ESE,105,2.0,4.0,80,0.00,,,0.00,77,LWC V2.10 B1813,2013-02-24 23:07:00,
2013-02-24 15:12:00,43.2,37.1,30.18,SE,126,0.0,5.0,79,0.00,,,0.00,79,LWC V2.10 B1813,2013-02-24 23:12:00,
2013-02-24 15:17:00,43.2,37.1,30.17,SE,145,0.0,4.0,79,0.00,,,0.00,90,LWC V2.10 B1813,2013-02-24 23:17:00,
2013-02-24 15:22:00,43.1,36.7,30.17,ESE,123,0.0,6.0,78,0.00,,,0.00,114,LWC V2.10 B1813,2013-02-24 23:22:00,
2013-02-24 15:27:00,43.1,37.0,30.17,ESE,112,2.0,4.0,79,0.00,,,0.00,97,LWC V2.10 B1813,2013-02-24 23:27:00,
2013-02-24 15:32:00,43.1,36.7,30.17,ESE,122,1.0,6.0,78,0.00,,,0.00,86,LWC V2.10 B1813,2013-02-24 23:32:00,
2013-02-24 15:37:00,43.1,36.7,30.17,ESE,119,1.0,4.0,78,0.00,,,0.00,69,LWC V2.10 B1813,2013-02-24 23:37:00,
2013-02-24 15:42:00,42.9,36.5,30.17,ESE,115,0.0,6.0,78,0.00,,,0.00,70,LWC V2.10 B1813,2013-02-24 23:42:00,
2013-02-24 15:47:00,42.9,36.5,30.16,SE,140,3.0,10.0,78,0.00,,,0.00,30,LWC V2.10 B1813,2013-02-24 23:47:00,
2013-02-24 15:52:00,42.9,36.5,30.16,SE,130,2.0,2.0,78,0.00,,,0.00,33,LWC V2.10 B1813,2013-02-24 23:52:00,
2013-02-24 15:57:00,42.8,36.4,30.16,East,101,2.0,4.0,78,0.00,,,0.00,51,LWC V2.10 B1813,2013-02-24 23:57:00,
2013-02-24 16:02:00,42.8,36.4,30.14,ESE,115,0.0,4.0,78,0.00,,,0.00,53,LWC V2.10 B1813,2013-02-25 00:02:00,
2013-02-24 16:07:00,42.8,36.7,30.14,SE,138,1.0,5.0,79,0.00,,,0.00,65,LWC V2.10 B1813,2013-02-25 00:07:00,
2013-02-24 16:12:00,42.8,36.7,30.14,ESE,112,1.0,3.0,79,0.00,,,0.00,53,LWC V2.10 B1813,2013-02-25 00:12:00,
2013-02-24 16:17:00,42.8,36.4,30.14,ESE,118,1.0,5.0,78,0.00,,,0.00,42,LWC V2.10 B1813,2013-02-25 00:17:00,
2013-02-24 16:22:00,42.8,36.4,30.14,SE,126,0.0,1.0,78,0.00,,,0.00,39,LWC V2.10 B1813,2013-02-25 00:22:00,
2013-02-24 16:27:00,42.8,36.7,30.14,SSE,153,0.0,2.0,79,0.00,,,0.00,30,LWC V2.10 B1813,2013-02-25 00:27:00,
2013-02-24 16:32:00,42.8,36.4,30.14,SE,128,2.0,4.0,78,0.00,,,0.00,30,LWC V2.10 B1813,2013-02-25 00:32:00,
2013-02-24 16:37:00,42.8,36.4,30.14,ESE,109,3.0,3.0,78,0.00,,,0.00,26,LWC V2.10 B1813,2013-02-25 00:37:00,
2013-02-24 16:42:00,42.8,36.4,30.14,ENE,74,0.0,1.0,78,0.00,,,0.00,23,LWC V2.10 B1813,2013-02-25 00:42:00,
2013-02-24 16:47:00,42.8,36.7,30.13,East,82,1.0,4.0,79,0.00,,,0.00,21,LWC V2.10 B1813,2013-02-25 00:47:00,
2013-02-24 16:52:00,42.8,36.7,30.13,SE,136,1.0,3.0,79,0.00,,,0.00,19,LWC V2.10 B1813,2013-02-25 00:52:00,
2013-02-24 16:57:00,42.8,36.4,30.13,East,90,2.0,5.0,78,0.00,,,0.00,19,LWC V2.10 B1813,2013-02-25 00:57:00,
2013-02-24 17:02:00,42.8,36.4,30.12,ESE,116,3.0,3.0,78,0.00,,,0.00,16,LWC V2.10 B1813,2013-02-25 01:02:00,
2013-02-24 17:07:00,42.8,36.4,30.12,SE,130,3.0,3.0,78,0.00,,,0.00,12,LWC V2.10 B1813,2013-02-25 01:07:00,
2013-02-24 17:12:00,42.6,36.2,30.12,SE,126,2.0,4.0,78,0.00,,,0.00,11,LWC V2.10 B1813,2013-02-25 01:12:00,
2013-02-24 17:17:00,42.6,36.2,30.11,ESE,106,1.0,4.0,78,0.00,,,0.00,7,LWC V2.10 B1813,2013-02-25 01:17:00,
2013-02-24 17:22:00,42.6,36.2,30.11,ESE,109,0.0,2.0,78,0.00,,,0.00,5,LWC V2.10 B1813,2013-02-25 01:22:00,
2013-02-24 17:27:00,42.6,36.2,30.11,ESE,104,0.0,7.0,78,0.00,,,0.00,0,LWC V2.10 B1813,2013-02-25 01:27:00,
2013-02-24 17:32:00,42.6,36.2,30.11,ESE,104,0.0,1.0,78,0.00,,,0.00,0,LWC V2.10 B1813,2013-02-25 01:32:00,
2013-02-24 17:37:00,42.6,36.6,30.11,East,93,0.0,4.0,79,0.00,,,0.00,0,LWC V2.10 B1813,2013-02-25 01:37:00,
2013-02-24 17:42:00,42.5,36.5,30.11,SE,132,0.0,2.0,79,0.00,,,0.00,0,LWC V2.10 B1813,2013-02-25 01:42:00,
2013-02-24 17:47:00,42.3,36.3,30.10,SE,134,0.0,3.0,79,0.00,,,0.00,0,LWC V2.10 B1813,2013-02-25 01:47:00,
2013-02-24 17:52:00,42.3,36.3,30.10,East,101,2.0,4.0,79,0.00,,,0.00,0,LWC V2.10 B1813,2013-02-25 01:52:00,
2013-02-24 17:57:00,42.3,36.3,30.10,ESE,110,0.0,3.0,79,0.00,,,0.00,0,LWC V2.10 B1813,2013-02-25 01:57:00,
2013-02-24 18:02:00,42.3,36.3,30.09,SE,131,1.0,3.0,79,0.00,,,0.00,0,LWC V2.10 B1813,2013-02-25 02:02:00,
2013-02-24 18:07:00,42.3,36.3,30.09,SE,128,0.0,5.0,79,0.00,,,0.00,0,LWC V2.10 B1813,2013-02-25 02:07:00,
2013-02-24 18:12:00,42.3,36.6,30.09,ESE,115,1.0,5.0,80,0.00,,,0.00,0,LWC V2.10 B1813,2013-02-25 02:12:00,
2013-02-24 18:17:00,42.3,36.6,30.08,ESE,121,2.0,2.0,80,0.00,,,0.00,0,LWC V2.10 B1813,2013-02-25 02:17:00,
2013-02-24 18:22:00,42.5,36.8,30.08,ESE,115,0.0,4.0,80,0.00,,,0.00,0,LWC V2.10 B1813,2013-02-25 02:22:00,
2013-02-24 18:27:00,42.5,36.8,30.08,ESE,109,0.0,2.0,80,0.00,,,0.00,0,LWC V2.10 B1813,2013-02-25 02:27:00,
2013-02-24 18:32:00,42.5,37.1,30.08,ESE,112,0.0,2.0,81,0.00,,,0.00,0,LWC V2.10 B1813,2013-02-25 02:32:00,
2013-02-24 18:37:00,42.3,36.9,30.08,SE,137,0.0,3.0,81,0.00,,,0.00,0,LWC V2.10 B1813,2013-02-25 02:37:00,
2013-02-24 18:42:00,42.3,36.9,30.08,ESE,120,1.0,1.0,81,0.00,,,0.00,0,LWC V2.10 B1813,2013-02-25 02:42:00,
2013-02-24 18:47:00,42.3,36.9,30.07,SE,128,0.0,5.0,81,0.00,,,0.00,0,LWC V2.10 B1813,2013-02-25 02:47:00,
2013-02-24 18:52:00,42.3,36.9,30.07,SE,142,1.0,3.0,81,0.00,,,0.00,0,LWC V2.10 B1813,2013-02-25 02:52:00,
2013-02-24 18:57:00,42.3,37.2,30.07,SE,130,2.0,3.0,82,0.00,,,0.00,0,LWC V2.10 B1813,2013-02-25 02:57:00,
2013-02-24 19:02:00,42.2,37.1,30.06,SE,128,0.0,1.0,82,0.00,,,0.00,0,LWC V2.10 B1813,2013-02-25 03:02:00,
2013-02-24 19:07:00,42.2,37.1,30.06,SE,138,0.0,2.0,82,0.00,,,0.00,0,LWC V2.10 B1813,2013-02-25 03:07:00,
2013-02-24 19:12:00,42.2,37.1,30.06,ESE,107,3.0,3.0,82,0.00,,,0.00,0,LWC V2.10 B1813,2013-02-25 03:12:00,
2013-02-24 19:17:00,42.1,37.0,30.06,SE,126,1.0,3.0,82,0.00,,,0.00,0,LWC V2.10 B1813,2013-02-25 03:17:00,
2013-02-24 19:22:00,42.1,37.0,30.06,ESE,111,1.0,4.0,82,0.00,,,0.00,0,LWC V2.10 B1813,2013-02-25 03:22:00,
2013-02-24 19:27:00,42.1,37.0,30.06,East,83,1.0,5.0,82,0.00,,,0.00,0,LWC V2.10 B1813,2013-02-25 03:27:00,
2013-02-24 19:32:00,42.1,36.7,30.05,ESE,116,2.0,3.0,81,0.00,,,0.00,0,LWC V2.10 B1813,2013-02-25 03:32:00,
2013-02-24 19:37:00,42.1,37.0,30.05,ESE,112,3.0,5.0,82,0.00,,,0.00,0,LWC V2.10 B1813,2013-02-25 03:37:00,
2013-02-24 19:42:00,42.2,36.8,30.05,East,88,4.0,5.0,81,0.00,,,0.00,0,LWC V2.10 B1813,2013-02-25 03:42:00,
2013-02-24 19:47:00,42.2,36.8,30.04,SE,139,2.0,3.0,81,0.00,,,0.00,0,LWC V2.10 B1813,2013-02-25 03:47:00,
2013-02-24 19:52:00,42.2,36.8,30.04,ESE,118,1.0,4.0,81,0.00,,,0.00,0,LWC V2.10 B1813,2013-02-25 03:52:00,
2013-02-24 19:57:00,42.2,36.8,30.04,SE,133,1.0,4.0,81,0.00,,,0.00,0,LWC V2.10 B1813,2013-02-25 03:57:00,
2013-02-24 20:02:00,42.3,36.9,30.03,SE,144,1.0,3.0,81,0.00,,,0.00,0,LWC V2.10 B1813,2013-02-25 04:02:00,
2013-02-24 20:07:00,42.3,36.9,30.03,SE,134,0.0,3.0,81,0.00,,,0.00,0,LWC V2.10 B1813,2013-02-25 04:07:00,
2013-02-24 20:12:00,42.3,36.6,30.03,East,100,4.0,8.0,80,0.00,,,0.00,0,LWC V2.10 B1813,2013-02-25 04:12:00,
2013-02-24 20:17:00,42.3,36.6,30.02,SE,125,3.0,3.0,80,0.00,,,0.00,0,LWC V2.10 B1813,2013-02-25 04:17:00,
2013-02-24 20:22:00,42.5,36.5,30.02,ESE,121,2.0,4.0,79,0.00,,,0.00,0,LWC V2.10 B1813,2013-02-25 04:22:00,
2013-02-24 20:27:00,42.5,36.5,30.02,SE,146,2.0,5.0,79,0.00,,,0.00,0,LWC V2.10 B1813,2013-02-25 04:27:00,
2013-02-24 20:32:00,42.6,36.6,30.01,SE,135,0.0,9.0,79,0.00,,,0.00,0,LWC V2.10 B1813,2013-02-25 04:32:00,
2013-02-24 20:37:00,42.6,36.2,30.01,ESE,119,0.0,2.0,78,0.00,,,0.00,0,LWC V2.10 B1813,2013-02-25 04:37:00,
2013-02-24 20:42:00,42.6,36.2,30.01,ESE,118,1.0,5.0,78,0.00,,,0.00,0,LWC V2.10 B1813,2013-02-25 04:42:00,
2013-02-24 20:47:00,42.6,36.2,30.00,ENE,70,3.0,6.0,78,0.00,,,0.00,0,LWC V2.10 B1813,2013-02-25 04:47:00,
2013-02-24 20:52:00,42.6,36.6,30.00,SE,144,0.0,1.0,79,0.00,,,0.00,0,LWC V2.10 B1813,2013-02-25 04:52:00,
2013-02-24 20:57:00,42.6,36.6,30.00,ESE,111,0.0,1.0,79,0.00,,,0.00,0,LWC V2.10 B1813,2013-02-25 04:57:00,
2013-02-24 21:00:00,42.6,36.6,30.00,SSE,160,3.0,4.0,79,0.00,,,0.00,0,LWC V2.10 B1813,2013-02-25 05:00:00,
2013-02-24 21:05:00,42.5,36.5,30.00,East,95,2.0,3.0,79,0.00,,,0.00,0,LWC V2.10 B1813,2013-02-25 05:05:00,
2013-02-24 21:10:00,42.5,36.1,30.00,East,80,0.0,3.0,78,0.00,,,0.00,0,LWC V2.10 B1813,2013-02-25 05:10:00,
2013-02-24 21:15:00,42.6,36.2,29.99,South,171,0.0,2.0,78,0.00,,,0.00,0,LWC V2.10 B1813,2013-02-25 05:15:00,
2013-02-24 21:20:00,42.6,36.2,29.99,SSE,150,0.0,2.0,78,0.00,,,0.00,0,LWC V2.10 B1813,2013-02-25 05:20:00,
2013-02-24 21:25:00,42.8,36.4,29.99,SE,142,0.0,3.0,78,0.00,,,0.00,0,LWC V2.10 B1813,2013-02-25 05:25:00,
2013-02-24 21:30:00,42.8,36.1,29.99,ESE,121,0.0,1.0,77,0.00,,,0.00,0,LWC V2.10 B1813,2013-02-25 05:30:00,
2013-02-24 21:35:00,42.8,36.1,29.99,SE,133,0.0,6.0,77,0.00,,,0.00,0,LWC V2.10 B1813,2013-02-25 05:35:00,
2013-02-24 21:40:00,42.8,35.8,29.99,SE,126,0.0,4.0,76,0.00,,,0.00,0,LWC V2.10 B1813,2013-02-25 05:40:00,
2013-02-24 21:45:00,42.9,35.9,29.98,ESE,107,1.0,3.0,76,0.00,,,0.00,0,LWC V2.10 B1813,2013-02-25 05:45:00,
2013-02-24 21:50:00,42.9,35.5,29.98,SSE,158,0.0,2.0,75,0.00,,,0.00,0,LWC V2.10 B1813,2013-02-25 05:50:00,
2013-02-24 21:55:00,43.1,35.7,29.98,ESE,103,2.0,3.0,75,0.00,,,0.00,0,LWC V2.10 B1813,2013-02-25 05:55:00,
2013-02-24 22:00:00,43.2,35.8,29.97,SSE,153,3.0,10.0,75,0.00,,,0.00,0,LWC V2.10 B1813,2013-02-25 06:00:00,
2013-02-24 22:05:00,43.3,35.6,29.97,East,96,2.0,6.0,74,0.00,,,0.00,0,LWC V2.10 B1813,2013-02-25 06:05:00,
2013-02-24 22:10:00,43.5,35.4,29.97,SSE,154,3.0,7.0,73,0.00,,,0.00,0,LWC V2.10 B1813,2013-02-25 06:10:00,
2013-02-24 22:15:00,43.6,35.9,29.97,SSE,167,0.0,5.0,74,0.00,,,0.00,0,LWC V2.10 B1813,2013-02-25 06:15:00,
2013-02-24 22:20:00,43.6,35.9,29.97,ESE,121,0.0,5.0,74,0.00,,,0.00,0,LWC V2.10 B1813,2013-02-25 06:20:00,
2013-02-24 22:25:00,43.6,35.9,29.97,SE,145,0.0,3.0,74,0.00,,,0.00,0,LWC V2.10 B1813,2013-02-25 06:25:00,
2013-02-24 22:30:00,43.6,36.2,29.96,SE,128,0.0,14.0,75,0.00,,,0.00,0,LWC V2.10 B1813,2013-02-25 06:30:00,
2013-02-24 22:35:00,43.5,36.1,29.96,SE,125,0.0,1.0,75,0.00,,,0.00,0,LWC V2.10 B1813,2013-02-25 06:35:00,
2013-02-24 22:40:00,43.5,36.4,29.96,ESE,104,3.0,3.0,76,0.00,,,0.00,0,LWC V2.10 B1813,2013-02-25 06:40:00,
2013-02-24 22:45:00,43.3,36.3,29.96,South,180,2.0,4.0,76,0.00,,,0.00,0,LWC V2.10 B1813,2013-02-25 06:45:00,
2013-02-24 22:50:00,43.3,36.9,29.96,East,98,0.0,0.0,78,0.00,,,0.00,0,LWC V2.10 B1813,2013-02-25 06:50:00,
2013-02-24 22:55:00,43.2,36.8,29.96,East,101,0.0,2.0,78,0.00,,,0.00,0,LWC V2.10 B1813,2013-02-25 06:55:00,
2013-02-24 23:00:00,43.1,37.0,29.95,ESE,117,1.0,2.0,79,0.00,,,0.00,0,LWC V2.10 B1813,2013-02-25 07:00:00,
2013-02-24 23:05:00,42.9,37.2,29.95,SE,132,0.0,0.0,80,0.00,,,0.00,0,LWC V2.10 B1813,2013-02-25 07:05:00,
2013-02-24 23:10:00,42.6,37.2,29.95,SE,134,0.0,3.0,81,0.00,,,0.01,0,LWC V2.10 B1813,2013-02-25 07:10:00,
2013-02-24 23:15:00,42.5,37.4,29.94,ESE,110,2.0,2.0,82,0.00,,,0.01,0,LWC V2.10 B1813,2013-02-25 07:15:00,
2013-02-24 23:20:00,42.2,37.4,29.94,ESE,111,1.0,1.0,83,0.00,,,0.01,0,LWC V2.10 B1813,2013-02-25 07:20:00,
2013-02-24 23:25:00,42.1,37.6,29.94,ESE,106,0.0,0.0,84,0.00,,,0.01,0,LWC V2.10 B1813,2013-02-25 07:25:00,
2013-02-24 23:30:00,41.9,37.4,29.93,ESE,106,0.0,1.0,84,0.00,,,0.01,0,LWC V2.10 B1813,2013-02-25 07:30:00,
2013-02-24 23:35:00,41.8,37.3,29.93,ESE,117,0.0,6.0,84,0.00,,,0.01,0,LWC V2.10 B1813,2013-02-25 07:35:00,
2013-02-24 23:40:00,41.6,37.4,29.93,SSE,165,1.0,3.0,85,0.00,,,0.01,0,LWC V2.10 B1813,2013-02-25 07:40:00,
2013-02-24 23:45:00,41.5,37.3,29.92,SE,144,1.0,14.0,85,0.00,,,0.01,0,LWC V2.10 B1813,2013-02-25 07:45:00,
2013-02-24 23:50:00,41.5,37.6,29.92,SE,126,0.0,2.0,86,0.00,,,0.01,0,LWC V2.10 B1813,2013-02-25 07:50:00,
2013-02-24 23:55:00,41.3,37.4,29.92,East,81,4.0,10.0,86,0.00,,,0.02,0,LWC V2.10 B1813,2013-02-25 07:55:00,